Regional Weather Roundup
Issued by NWS

Home | Current Version | Previous Version | Text Only | Print | Product List | Glossary On
Versions: 1 2 3 4 5 6 7 8 9 10 11 12 13 14 15 16 17 18 19 20 21 22 23 24 25 26 27 28 29 30 31 32 33 34 35 36 37 38 39 40 41 42 43 44 45 46 47 48 49 50
275
ASUS43 KDMX 221901
RWRIA

WEATHER ROUNDUP FOR IOWA
NATIONAL WEATHER SERVICE DES MOINES IA
200 PM CDT MON MAY 22 2017

NOTE: "FAIR" INDICATES FEW OR NO CLOUDS BELOW 12,000 FEET WITH NO
SIGNIFICANT WEATHER AND/OR OBSTRUCTIONS TO VISIBILITY.

* - THESE STATIONS ARE NOT NWS STATIONS...THUS NOT UNDER NWS
QUALITY CONTROL.  THEY ALSO DO NOT REPORT WEATHER SUCH
AS PRECIPITATION OR FOG.

IAZ001>003-012>014-020>022-031>034-043>046-222000-
   NORTHWEST IOWA

CITY           SKY/WX    TMP DP  RH WIND       PRES   REMARKS
CARROLL *      MOSUNNY   72  50  46 W8G18     29.87F
CHEROKEE *     PTSUNNY   68  48  48 NW9       29.85F
DENISON *      MOSUNNY   70  48  46 W15       29.90S
LE MARS *      MOSUNNY   70  52  52 W12G20    29.86F
ORANGE CITY *  MOSUNNY   68  54  60 W10G18    29.85F
SHELDON *      SUNNY     66  48  52 W12G20      N/A
SIOUX CITY     MOSUNNY   70  49  47 W15G23    29.86F
SPENCER        PTSUNNY   68  50  52 NW12      29.84F
STORM LAKE *   MOSUNNY   68  46  45 NW12G21   29.86F
$$

IAZ055>058-069>071-079>083-090>094-222000-
   SOUTHWEST IOWA

CITY           SKY/WX    TMP DP  RH WIND       PRES   REMARKS
ATLANTIC *     CLOUDY    70  50  49 SW15G23   29.90F
AUDUBON *      CLOUDY    70  50  49 SW7       29.90F
CLARINDA *     CLOUDY    64  57  77 SW17G23   29.96F
COUNCIL BLFS * CLOUDY    70  52  52 SW10G21   29.90F
CRESTON *      CLOUDY    64  57  77 SW18      29.94F
HARLAN  *      MOSUNNY   72  46  40 W17       29.93F
LAMONI         CLOUDY    61  56  83 SW21      29.96F
RED OAK *      CLOUDY    68  57  68 SW17      29.92F
SHENANDOAH *   CLOUDY    68  57  68 SW21G26   29.94F
$$

IAZ047>049-059>061-072>074-084-222000-
   CENTRAL IOWA

CITY           SKY/WX    TMP DP  RH WIND       PRES   REMARKS
AMES           PTSUNNY   70  54  56 W13G22    29.86F
ANKENY *       CLOUDY    68  55  64 SW15G22   29.90S
BOONE *        CLOUDY    70  52  52 W14G22    29.86F
DES MOINES     CLOUDY    72  53  51 SW16      29.89F
GRINNELL*      CLOUDY    68  53  58 SW15G21   29.91R
MARSHALLTOWN   CLOUDY    70  54  56 SW17G24   29.86F
NEWTON *       PTSUNNY   68  54  60 SW18G26   29.88F
PELLA *        CLOUDY    69  55  60 SW14G22   29.91F
PERRY *        PTSUNNY   70  51  50 SW14G22   29.88F
$$

IAZ004>006-015-016-023>025-035-036-222000-
   NORTH CENTRAL IOWA

CITY           SKY/WX    TMP DP  RH WIND       PRES   REMARKS
ALGONA *       MOSUNNY   68  52  56 CALM      29.84F
CLARION *      MOSUNNY   70  52  52 W13       29.84F
ESTHERVILLE    SUNNY     66  49  54 NE7       29.85S
FORT DODGE *   PTSUNNY   68  52  56 W7        29.85F
MASON CITY     MOSUNNY   65  50  58 CALM      29.86F
FOREST CITY *    N/A     72  41  33 CALM      29.85F
WEBSTER CITY * MOSUNNY   70  50  49 SW12G21   29.83F
IOWA FALLS *     N/A     70  54  58 SW12      29.87F
$$

IAZ007>011-017>019-026>030-037>042-050>054-066-222000-
   NORTHEAST IOWA

CITY           SKY/WX    TMP DP  RH WIND       PRES   REMARKS
CEDAR RAPIDS   CLOUDY    68  56  65 SW15G23   29.87F
CHARLES CITY * MOSUNNY   66  54  63 S8        29.86F
CLINTON *      CLOUDY    66  54  65 SW17      29.91F
DECORAH *      PTSUNNY   64  50  59 SW9G15    29.86F
DUBUQUE        PTSUNNY   63  52  67 S9        29.90F
MONTICELLO *   MOSUNNY   68  55  64 S8G18     29.87F
OELWEIN *      MOSUNNY   66  55  68 SW12      29.87F
WATERLOO       PTSUNNY   69  52  54 W13       29.85F
$$

IAZ064-065-067-068-078-222000-
   EAST CENTRAL IOWA

CITY           SKY/WX    TMP DP  RH WIND       PRES   REMARKS
DAVENPORT      MOSUNNY   67  52  58 SW18G33   29.92F
IOWA CITY      PTSUNNY   72  55  55 SW18G29   29.91F
MT. PLEASANT * CLOUDY    64  56  76 S14       29.96F
MUSCATINE *    CLOUDY    66  54  63 SW18G33   29.94F
QUAD CITIES    LGT RAIN  67  52  58 SW20G29   29.93S
$$

IAZ062-063-075>077-085>089-095>099-222000-
   SOUTHEAST IOWA

CITY           SKY/WX    TMP DP  RH WIND       PRES   REMARKS
BURLINGTON     CLOUDY    63  58  83 SW10      29.97F
FAIRFIELD *    CLOUDY    64  55  72 SW20G25   29.95S
FORT MADISON * DRIZZLE   63  57  82 SW3       29.99F
KEOKUK *       LGT RAIN  63  57  82 S9        29.97F
OSKALOOSA *    PTSUNNY   65  56  71 SW31G38   29.93S
OTTUMWA        CLOUDY    65  56  72 SW25G32   29.94S
WASHINGTON *   CLOUDY    68  57  68 SW20G26   29.94F
$$

ABBREVIATIONS USED IN REMARKS
   TC - TEMPERATURES IN CELSIUS
  WCI - WIND CHILL INDEX
   HX - HEAT INDEX
  VSB - VISIBILITY
$$





USA.gov is the U.S. government's official web portal to all federal, state and local government web resources and services.